Regional Weather Roundup
Issued by NWS

Home | Current Version | Previous Version | Text Only | Print | Product List | Glossary Off
Versions: 1 2 3 4 5 6 7 8 9 10 11 12 13 14 15 16 17 18 19 20 21 22 23 24 25 26 27 28 29 30 31 32 33 34 35 36 37 38 39 40 41 42 43 44 45 46 47 48 49 50

000
ASUS44 KMEG 242110
RWRTN
TENNESSEE HOURLY STATE WEATHER ROUNDUP
NATIONAL WEATHER SERVICE MEMPHIS TN
300 PM CST MON NOV 24 2014

TNZ002-004-019-021-049-052-054-088>092-242200-
WEST TENNESSEE

CITY           SKY/WX    TMP DP  RH WIND       PRES   REMARKS
MEMPHIS INTL   MOSUNNY   56  32  40 W10       29.90R
NWS MEMPHIS      N/A     56 N/A N/A MISG        N/A
JACKSON        SUNNY     54  31  41 W18       29.88R
DYERSBURG      SUNNY     54  27  35 W15G24    29.88R
UNION CITY     SUNNY     48  34  57 SW14      29.84R
PARIS          MOSUNNY   50  32  50 SW14      29.85R
HUNTINGDON     SUNNY     51  28  41 SW10      29.87R
LEXINGTON      SUNNY     55  30  38 W12       29.86R
SAVANNAH       SUNNY     57  30  35 W9        29.87R
$$

TNZ008-025-027-028-033-062-065-066-242200-
NORTH MIDDLE TENNESSEE

CITY           SKY/WX    TMP DP  RH WIND       PRES   REMARKS
NASHVILLE      MOSUNNY   57  34  41 SW12G18   29.82R
CLARKSVILLE    SUNNY     54  33  45 SW15G23   29.82R
SMYRNA         SUNNY     60  37  42 W13       29.83R
COOKEVILLE     SUNNY     63  37  39 W9        29.80R
CROSSVILLE     SUNNY     59  41  51 W14G23    29.81R
$$

TNZ061-075-076-078-094-096-097-242200-
SOUTH MIDDLE TENNESSEE

CITY           SKY/WX    TMP DP  RH WIND       PRES   REMARKS
FAYETTEVILLE   SUNNY     57  36  44 MISG      29.85R
TULLAHOMA      SUNNY     61  34  36 W14       29.84R
WINCHESTER     SUNNY     61  39  44 SW12      29.85R
MCMINNVILLE    SUNNY     61  39  44 SW12      29.82R
COLUMBIA       SUNNY     57  32  38 W8        29.84R
SHELBYVILLE    SUNNY     61  37  41 SW22G33   29.84R
$$

TNZ017-018-042-046-047-242200-
NORTHEAST TENNESSEE

CITY           SKY/WX    TMP DP  RH WIND       PRES   REMARKS
TRI CITIES     MOSUNNY   70  42  36 SW28G37   29.73R
ELIZABETHTON   CLEAR     70  39  32 W13       29.73R
$$

TNZ012-013-036-069-073-074-242200-
CENTRAL EAST TENNESSEE

CITY           SKY/WX    TMP DP  RH WIND       PRES   REMARKS
KNOXVILLE      MOSUNNY   69  44  40 SW18G28   29.74R
OAK RIDGE      SUNNY     68  40  35 W12G22    29.76R
GATLINBURG     CLEAR     72  41  33 SW12      29.73R
MORRISTOWN     CLEAR     70  45  40 W14       29.74R
$$

TNZ083-085-099-242200-
SOUTHEAST TENNESSEE

CITY           SKY/WX    TMP DP  RH WIND       PRES   REMARKS
CHATTANOOGA    MOSUNNY   68  44  42 SW10      29.81R
$$

SKY/WX REPORTED AS FAIR MEANS FEW OR NO CLOUDS BELOW
12 THOUSAND FEET.



USA.gov is the U.S. government's official web portal to all federal, state and local government web resources and services.